This demonstration page uses our WeatherBlox Daily Observations layout. Learn more.

Left ArrowRight Arrow

34.74481, -87.66753

Hourly Observations for May 23, 2020

Temp ( °F °C ) Dew Point ( °F °C ) Humidity (%) Winds ( mph kmh ) Pressure ( in mb ) Visibility ( mi km ) Precip ( " mm )
12:53 am 00:53 Clear 71 21.7 66 18.9 84 84 SSE 7 11 29.98 1015 10 16 0.00 0.00
1:53 am 01:53 Clear 69 20.6 65 18.3 87 87 SE 7 11 29.97 1015 10 16 0.00 0.00
2:53 am 02:53 Clear 67 19.4 64 17.8 91 91 Calm 29.98 1015 10 16 0.00 0.00
3:44 am 03:44 Mostly Cloudy 67 19.4 64 17.8 91 91 Calm 30.00 1016 10 16 0.00 0.00
3:53 am 03:53 Cloudy 67 19.4 64 17.8 91 91 E 3 6 29.99 1016 10 16 0.00 0.00
4:17 am 04:17 Mostly Clear 66 18.9 63 17.2 90 90 ESE 3 6 30.00 1016 10 16 0.00 0.00
4:43 am 04:43 Mostly Cloudy 67 19.4 64 17.8 91 91 E 3 6 30.00 1016 10 16 0.00 0.00
4:53 am 04:53 Cloudy 67 19.4 64 17.8 91 91 E 3 6 29.99 1016 10 16 0.00 0.00
5:31 am 05:31 Partly Cloudy 67 19.4 64 17.8 91 91 SE 5 7 30.02 1017 10 16 0.00 0.00
5:53 am 05:53 Mostly Sunny 67 19.4 64 17.8 91 91 SE 5 7 30.02 1017 10 16 0.00 0.00
6:50 am 06:50 Cloudy 70 21 64 18 83 83 SSE 5 7 30.05 1017 10 16 0.00 0.00
6:53 am 06:53 Cloudy 70 21.1 65 18.3 84 84 SSE 5 7 30.04 1017 10 16 0.00 0.00
7:53 am 07:53 Cloudy 72 22.2 66 18.9 82 82 S 6 9 30.04 1017 10 16 0.00 0.00
8:02 am 08:02 Cloudy 72 22.2 66 18.9 82 82 S 6 9 30.04 1017 10 16 0.00 0.00
8:53 am 08:53 Cloudy 73 22.8 68 20 84 84 S 8 13 30.05 1018 10 16 0.00 0.00
9:31 am 09:31 Cloudy 75 23.9 69 20.6 82 82 SSW 7 11 30.06 1018 10 16 0.00 0.00
9:53 am 09:53 Cloudy 78 25.6 70 21.1 76 76 SSW 9 15 30.05 1018 10 16 0.00 0.00
10:53 am 10:53 Mostly Cloudy 80 26.7 71 21.7 74 74 S 8 13 30.03 1017 10 16 0.00 0.00
11:13 am 11:13 Mostly Sunny 82 27.8 70 21.1 67 67 SSW 9 15 30.02 1017 10 16 0.00 0.00
11:53 am 11:53 Mostly Sunny 82 27.8 70 21.1 67 67 SSW 7 11 30.02 1017 10 16 0.00 0.00
12:53 pm 12:53 Partly Cloudy 83 28.3 71 21.7 67 67 S 5 7 30.02 1017 10 16 0.00 0.00
1:53 pm 13:53 Partly Cloudy 86 30 71 21.7 61 61 S 8 13 29.99 1016 10 16 0.00 0.00
2:53 pm 14:53 Partly Cloudy 89 31.7 69 20.6 52 52 WSW 14 22 29.98 1015 10 16 0.00 0.00
3:53 pm 15:53 Mostly Sunny 88 31.1 67 19.4 50 50 W 8 13 29.96 1015 10 16 0.00 0.00
4:53 pm 16:53 Sunny 88 31.1 67 19.4 50 50 SSW 6 9 29.94 1014 10 16 0.00 0.00
5:53 pm 17:53 Partly Cloudy with Light Rain 80 26.7 73 22.8 79 79 SW 6 9 29.93 1014 10 16 0.01 0.25
6:53 pm 18:53 Sunny 79 26.1 69 20.6 72 72 SSW 6 9 29.95 1014 10 16 0.00 0.00
7:53 pm 19:53 Clear 78 25.6 70 21.1 76 76 S 5 7 29.97 1015 10 16 0.00 0.00
8:53 pm 20:53 Mostly Cloudy 76 24.4 68 20 77 77 S 10 17 30.00 1016 10 16 0.00 0.00
9:53 pm 21:53 Mostly Clear 74 23.3 68 20 82 82 SSE 3 6 29.99 1016 10 16 0.00 0.00
10:53 pm 22:53 Clear 73 22.8 67 19.4 81 81 Calm 30.01 1016 10 16 0.00 0.00
11:53 pm 23:53 Clear 71 21.7 66 18.9 84 84 S 8 13 30.03 1017 10 16 0.00 0.00

Powered by AerisWeather